Погода в Тюкалинске

Погода в Тюкалинске : погода сейчас, прогноз погоды и архив. Всё, что Вы хотите узнать о погоде в Тюкалинске!

Хотите узнать прогноз погоды в Тюкалинске? Тогда Вам сюда: Погода в Тюкалинске

Поиск расширенной информации на нашем сайте:

Другие новости

Новости СМИ2

Главная страница сайта

Новости сайта

03.07.2017

Напоминаем, что на нашем специализированном сайте Метеоцентр.Азия вы можете получить высокодетализированные автоматические прогнозы погоды по пунктам России, СНГ и мира в авиационном формате (включающие направление и скорость ветра, видимость, явления погоды, количество и форму облачности, нижнюю и верхнюю границу облачности).


Погода в Тюкалинске - сегодня

Время (UTC), дата Ветер
(°,м/с) 
Видим.   Явления Облачность Т
(°С)
Тd
(°С)
f(%) Тe
(°С)
Pmin
(гПа)
dP
(гПа)
Po
(мм)
O2
(г/м3)
Тmin Tmax R s Состояние
почвы
18 15.02.18 320 (СЗ) 10 км    6/0 средняя 
[Ac trans]
-15.4 -19 74 -19  1027.4  1.8  759  326           
21 15.02.18 320 (СЗ) 10 км    4/0 верхняя 
[Ci fib]
-18 -20.7 79 -22  1029.3  1.7  760  329           
00 16.02.18 300 (СЗ) 10 км    3/0 верхняя 
[Ci fib]
-20.2 -22.5 82 -23  1031.3  1.9  761  333           
03 16.02.18 310 (СЗ) 20000 м    6/0 верхняя 
[Ci fib]
-20.7 -23.3 80 -21  1033.5  2.1  763  334  -20.9      29  неравномерный
сухой снег
100% 
06 16.02.18 340 (С) 20000 м    ясно 
-17.5 -20.2 79 -21  1035.4  765  331           
09 16.02.18 340 (С) 20000 м    ясно 
-13.2 -18.3 65 -15  1036  0.9  765  326           
12 16.02.18 320 (СЗ) 20000 м    ясно 
-14.2 -18.7 69 -14  1037.4  1.3  766  327           
18 16.02.18 240 (ЮЗ) 10 км    ясно 
-25.8 -29.1 74 -26  1039.6  0.4  767  343           
21 16.02.18 230 (ЮЗ) 10 км    ясно 
-28.6 -32.2 71 -29  1040.2  0.4  768  347           
00 17.02.18 250 (З) 10 км    ясно 
-29.5 -33.5 68 -30  1040.6  0.3  768  349           
03 17.02.18 тихо ()   20000 м    3/0 верхняя 
[Ci]
-31.3 -35.4 67 -31  1040.9  0.2  768  352  -32      29  неравномерный
сухой снег
100% 
06 17.02.18 тихо ()   20000 м    ясно 
-21.3 -24.2 77 -21  1040.1  0.1  768  337           
09 17.02.18 230 (ЮЗ) 20000 м    ясно 
-9.9 -14.3 70 -13  1038.6  -0.8  767  322           
12 17.02.18 220 (ЮЗ) 20000 м    ясно 
-11.2 -15 73 -13  1038  -0.7  767  324           
15 17.02.18 210 (ЮЗ) 10 км    ясно 
-13.7 -16.4 80 -17  1037.8  -0.4  767  327    -9.5       
18 17.02.18 220 (ЮЗ) 10 км    6/6 600 м 
[Sc]
-14.7 -16.7 85 -18  1036.9  -0.9  766  328           
21 17.02.18 220 (ЮЗ) 10 км    4/0 верхняя 
[Ci fib]
-15.5 -17.6 84 -19  1035.8  -1.1  765  328           
00 18.02.18 230 (ЮЗ) 10 км    ясно 
-16 -18.2 83 -20  1034.9  -1  764  329           
03 18.02.18 220 (ЮЗ) 20000 м    8/0 верхняя 
[Ci sp]
-15.5 -17.8 82 -19  1034.5  -0.3  764  328  -16.6      29  неравномерный
сухой снег
100% 
06 18.02.18 230 (ЮЗ) 4000 м  слаб. снег  10/0 средняя 
[As op]
-12.8 -15.1 83 -17  1033.8  -0.6  764  324           
09 18.02.18 240 (ЮЗ) 20000 м  {снег}  8/0 верхняя 
[Ci fib]
-9 -13 73 -12  1033.2  -0.4  763  319           
12 18.02.18 240 (ЮЗ) 20000 м  {снег}  8/0 средняя 
[Ac trans]
-9.9 -13.3 76 -14  1033.1  0.1  763  320           
18 18.02.18 250 (З) 10 км    10/0 средняя 
[As op]
-10.1 -13.5 76 -14  1032.9  -0.4  763  321           
21 18.02.18 250 (З) 10 км    6/0 средняя 
[Ac trans]
-9.5 -12.9 76 -13  1033  0.2  763  320           
00 19.02.18 250 (З) 10 км    ясно 
-12.3 -14.7 82 -17  1033.7  0.5  764  324           
Время (UTC), дата Ветер
(°,м/с) 
Видим.   Явления Облачность Т
(°С)
Тd
(°С)
f(%) Тe
(°С)
Pmin
(гПа)
dP
(гПа)
Po
(мм)
O2
(г/м3)
Тmin Tmax R s Состояние
почвы

Для получения пояснительной информации подведите курсор к названию столбца.

ПОГОДА в Тюкалинске - архив

Всё, что Вы хотите узнать о погоде в Тюкалинске - удобно и подробно!

Выберите нужную дату (начиная с 1 января 2015* года) и нажмите кнопку "Найти".
Будут отображены архивные сводки погоды по пункту Тюкалинск, начиная с указанной даты.


Отображать данные в формате CSV (для использования в таблицах Excel)


Внимание! Наш архив погоды предназначен исключительно для личного некоммерческого использования в познавательных целях. Если Вам необходимы официальные справки о состоянии погоды (для производственных, юридических, коммерческих и т.п. целей), обращайтесь в органы Росгидромета.

*Примечание: данная дата относится к архиву по метеостанциям СССР (Россия, СНГ, Балтия).
Архив по метеостанциям Зарубежной Европы и Азии (кроме Китая) хранится 10 дней, по другим регионам земного шара (Китай, Африка, Америка, Австралия, Океания) - 1 день.

Тюкалинск - район местоположения метеостанции


Название, широта, долгота, высота метеостанции:
Тюкалинск 55.9°ш. 72.2°д. 118 м над ур. моря [Российская Федерация]

Дополнительная информация

В oтличие oт бoльшинства пoгoдных сайтoв мы публикуем пoдрoбную метеoинфoрмацию в детальнoм прoфессиoнальнoм фoрмате.

Характеристики температуры и влажнoсти вoздуха измеряются на высoте 2 м в тени вдали oт зданий и деревьев.
Скoрoсть ветра измеряется на высoте 10 м (на урoвне рoста челoвека скoрoсть ветра ниже в 1.5-2 раза). Если метеoстанция нахoдится в гoрoде или в лесу, тo скoрoсть ветра занижена на 2-4 м/с пo сравнению с oткрытым местoм. Скoрoсть ветра над акватoриями крупных рек и oзёр, а также на вершинах хoлмoв на 2-5 м/с выше, чем в oбычных услoвиях.
Атмoсфернoе давление в разных тoчках местнoсти мoжет значительнo oтличаться oт давления на метеoстанции, в зависимoсти oт услoвий рельефа (при пoдъёме на 10 м давление пoнижается примернo на 1 мм рт.ст.).